Location: Killam
(52.7910°N, 111.8608°W)
Time: 13:14:44
(UTC+00:00)

BlueWalker 3 - Pass Details

Date: 30 January 2026
Orbit: 450 x 461 km, 53.2° (Epoch: 11 February)

Event Time Altitude Azimuth Distance (km) Brightness Sun altitude
Rises 01:16:00 0° 257° (WSW) 2,457 7.8 -10.4°
Reaches altitude 10° 01:18:08 10° 257° (WSW) 1,584 6.1 -10.7°
Maximum altitude 01:21:41 87° 171° (S) 458 1.7 -11.2°
Enters shadow 01:24:12 19° 80° (E) 1,158 3.1 -11.6°
